This demonstration page uses our WeatherBlox Daily Observations layout. Learn more.

Left ArrowRight Arrow

40.92945, -100.16068

Hourly Observations for May 29, 2022

Temp ( °F °C ) Dew Point ( °F °C ) Humidity (%) Winds ( mph kmh ) Pressure ( in mb ) Visibility ( mi km ) Precip ( " mm )
12:15 am 00:15 Clear 74 23.6 64 17.7 70 70 SSE 14 22 29.27 991 10 16 0.00 0.00
12:35 am 00:35 Clear 74 23.3 64 18 72 72 S 15 24 29.28 991 10 16 0.00 0.00
12:55 am 00:55 Clear 73 23 65 18.1 74 74 SSE 13 20 29.28 991 10 16 0.00 0.00
1:15 am 01:15 Clear 72 22.3 65 18.4 79 79 SSE 13 20 29.28 992 10 16 0.00 0.00
1:35 am 01:35 Clear 71 21.7 65 18.5 82 82 SW 6 9 29.31 993 10 16 0.00 0.00
1:55 am 01:55 Clear 71 21.9 65 18.1 79 79 WSW 10 17 29.31 992 10 16 0.00 0.00
2:15 am 02:15 Clear 72 22.1 64 17.9 77 77 Calm 29.30 992 10 16 0.00 0.00
2:35 am 02:35 Clear 69 20.4 64 17.8 85 85 Calm 29.30 992 10 16 0.00 0.00
2:55 am 02:55 Clear 66 18.9 63 17.1 89 89 ENE 3 6 29.31 993 10 16 0.00 0.00
3:15 am 03:15 Clear 65 18.3 62 16.6 90 90 N 8 13 29.31 992 7 11 0.00 0.00
3:35 am 03:35 Clear 65 18.5 63 17.2 92 92 ENE 6 9 29.30 992 10 16 0.00 0.00
3:55 am 03:55 Clear 65 18.4 63 17.2 93 93 E 6 9 29.29 992 10 16 0.00 0.00
4:15 am 04:15 Clear 65 18.6 64 17.5 93 93 E 5 7 29.30 992 10 16 0.00 0.00
4:35 am 04:35 Clear 66 19 64 17.7 92 92 ENE 6 9 29.26 991 10 16 0.00 0.00
4:55 am 04:55 Clear 66 18.9 64 17.8 93 93 E 5 7 29.27 991 7 11 0.00 0.00
5:15 am 05:15 Clear 65 18.6 64 17.7 95 95 ENE 5 7 29.27 991 7 11 0.00 0.00
5:35 am 05:35 Clear 64 17.7 63 17 96 96 NW 7 11 29.29 992 7 11 0.00 0.00
5:55 am 05:55 Clear with Mist and Fog 64 17.7 63 17.1 96 96 W 5 7 29.30 992 5 8 0.00 0.00
6:15 am 06:15 Sunny with Mist and Fog 64 17.5 62 16.8 96 96 Calm 29.32 993 5 8 0.00 0.00
6:35 am 06:35 Sunny with Mist and Fog 63 17.1 62 16.6 97 97 W 7 11 29.32 993 4 6 0.00 0.00
6:55 am 06:55 Sunny with Mist and Fog 64 17.5 62 16.8 96 96 WSW 6 9 29.32 993 4 6 0.00 0.00
7:15 am 07:15 Sunny with Mist and Fog 64 17.5 63 17 97 97 NW 6 9 29.32 993 4 6 0.00 0.00
7:35 am 07:35 Sunny with Mist and Fog 65 18.1 64 17.5 96 96 NW 10 17 29.31 993 4 6 0.00 0.00
7:55 am 07:55 Sunny with Mist and Fog 65 18.5 64 17.6 95 95 NW 13 20 29.32 993 5 8 0.00 0.00
8:15 am 08:15 Sunny 66 19 64 17.9 93 93 N 10 17 29.30 992 7 11 0.00 0.00
8:35 am 08:35 Sunny 67 19.6 65 18.2 92 92 NNW 9 15 29.32 993 7 11 0.00 0.00
8:55 am 08:55 Sunny 69 20.5 65 18.5 88 88 NW 10 17 29.31 993 10 16 0.00 0.00
9:15 am 09:15 Sunny 70 21 65 18.6 86 86 NW 13 20 29.30 992 10 16 0.00 0.00
9:35 am 09:35 Sunny 71 21.5 66 19 86 86 NW 10 17 29.29 992 10 16 0.00 0.00
9:55 am 09:55 Sunny 72 22 65 18.5 81 81 NNW 18 30 29.29 992 10 16 0.00 0.00
10:15 am 10:15 Sunny 71 21.9 61 16.3 71 71 NNW 22 35 29.29 992 10 16 0.00 0.00
10:35 am 10:35 Sunny 72 22.4 55 13 55 55 NNW 25 41 29.28 992 10 16 0.00 0.00
10:55 am 10:55 Sunny 72 22.1 54 12.1 53 53 NNW 20 31 29.29 992 10 16 0.00 0.00
11:15 am 11:15 Sunny 73 22.5 53 11.7 51 51 N 17 28 29.27 991 10 16 0.00 0.00
11:35 am 11:35 Sunny 73 22.6 53 11.5 50 50 NNW 16 26 29.28 992 10 16 0.00 0.00
11:55 am 11:55 Sunny 73 23 53 11.7 49 49 N 17 28 29.28 991 10 16 0.00 0.00
12:15 pm 12:15 Sunny 75 23.8 54 12.3 49 49 N 16 26 29.27 991 10 16 0.00 0.00
12:35 pm 12:35 Sunny 76 24.6 54 12.2 46 46 N 17 28 29.27 991 10 16 0.00 0.00
12:55 pm 12:55 Sunny 76 24.5 52 11.3 44 44 N 17 28 29.28 991 10 16 0.00 0.00
1:15 pm 13:15 Sunny 78 25.3 54 12.1 44 44 N 14 22 29.26 991 10 16 0.00 0.00
1:35 pm 13:35 Sunny 77 25 55 12.8 47 47 NNE 13 20 29.27 991 10 16 0.00 0.00
1:55 pm 13:55 Partly Cloudy 76 24.7 54 12.4 46 46 NNE 14 22 29.27 991 10 16 0.00 0.00
2:15 pm 14:15 Partly Cloudy 76 24.7 55 12.5 47 47 NE 13 20 29.27 991 10 16 0.00 0.00
2:35 pm 14:35 Sunny 76 24.6 58 14.5 53 53 NE 9 15 29.27 991 10 16 0.00 0.00
2:55 pm 14:55 Partly Cloudy 76 24.7 56 13.6 50 50 NE 10 17 29.27 991 10 16 0.00 0.00
3:15 pm 15:15 Partly Cloudy 78 25.6 55 12.8 45 45 NNE 13 20 29.26 991 10 16 0.00 0.00
3:35 pm 15:35 Partly Cloudy 78 25.4 58 14.4 51 51 NNE 12 19 29.26 991 10 16 0.00 0.00
3:55 pm 15:55 Sunny 80 26.9 60 15.7 50 50 NE 8 13 29.25 990 10 16 0.00 0.00
4:15 pm 16:15 Sunny 81 27.1 63 17.1 54 54 ENE 9 15 29.25 990 10 16 0.00 0.00
4:35 pm 16:35 Sunny 81 27.1 64 17.6 56 56 NNE 8 13 29.24 990 10 16 0.00 0.00
4:55 pm 16:55 Sunny 81 27.1 64 18 58 58 E 7 11 29.24 990 10 16 0.00 0.00
5:15 pm 17:15 Sunny 81 27.1 65 18.4 59 59 ENE 7 11 29.24 990 10 16 0.00 0.00
5:35 pm 17:35 Sunny 80 26.7 65 18.1 59 59 S 3 6 29.24 990 10 16 0.00 0.00
5:55 pm 17:55 Partly Cloudy 79 26.2 65 18.6 63 63 SE 8 13 29.25 991 10 16 0.00 0.00
6:15 pm 18:15 Sunny 81 27 66 19.1 62 62 E 6 9 29.23 990 10 16 0.00 0.00
6:35 pm 18:35 Sunny 81 27.1 66 18.7 60 60 ESE 6 9 29.24 990 10 16 0.00 0.00
6:55 pm 18:55 Sunny 80 26.9 66 18.9 62 62 Calm 29.23 990 7 11 0.00 0.00
7:15 pm 19:15 Sunny 80 26.7 66 18.9 62 62 Calm 29.23 990 10 16 0.00 0.00
7:35 pm 19:35 Sunny 79 26.2 67 19.3 66 66 NNE 5 7 29.23 990 10 16 0.00 0.00
7:55 pm 19:55 Sunny 78 25.6 67 19.5 69 69 NE 6 9 29.24 990 10 16 0.00 0.00
8:15 pm 20:15 Sunny 77 24.8 67 19.4 72 72 ENE 7 11 29.24 990 10 16 0.00 0.00
8:35 pm 20:35 Sunny 75 23.8 66 19.1 75 75 ENE 8 13 29.25 991 10 16 0.00 0.00
8:55 pm 20:55 Sunny 74 23.1 66 19.1 78 78 E 9 15 29.24 990 10 16 0.00 0.00
9:15 pm 21:15 Clear 74 23.5 66 18.9 75 75 ENE 7 11 29.23 990 10 16 0.00 0.00
9:35 pm 21:35 Clear 71 21.6 65 18.6 83 83 ENE 8 13 29.25 991 10 16 0.00 0.00
9:55 pm 21:55 Clear 71 21.4 65 18.5 84 84 N 7 11 29.27 991 10 16 0.00 0.00
10:15 pm 22:15 Clear 69 20.8 65 18.3 86 86 NNW 9 15 29.30 992 10 16 0.00 0.00
10:35 pm 22:35 Clear 70 21.1 65 18.5 85 85 NW 12 19 29.30 992 10 16 0.00 0.00
10:55 pm 22:55 Clear 72 22 65 18.4 80 80 NNE 9 15 29.27 991 10 16 0.00 0.00
11:15 pm 23:15 Clear 71 21.5 65 18.6 84 84 Calm 29.27 991 10 16 0.00 0.00
11:35 pm 23:35 Partly Cloudy 69 20.4 58 14.7 70 70 WNW 26 43 29.30 992 10 16 0.00 0.00
11:55 pm 23:55 Partly Cloudy with Heavy Rain 64 17.9 55 12.9 73 73 NNW 24 39 29.32 993 5 8 0.08 2.03

Powered by AerisWeather